{"data":{"norad_id":66405,"intl_designator":"2025-257AB","name":"STARLINK-35683","alt_names":[],"object_type":"PAYLOAD","status":"ACTIVE","operator":null,"country":"US","launch_date":"2025-11-09","launch_site_code":"AFETR","launch_vehicle":null,"mission":null,"orbit_class":"UNKNOWN","rcs_meters":null,"size_class":null,"mass_kg":null,"dimensions":null,"purposes":["comms"],"wikipedia_slug":null,"has_3d_model":false,"image_url":null,"decayed_at":null,"tle_current":{"epoch":"2026-05-25T04:19:55.098912Z","epoch_age_seconds":53418,"freshness":"FRESH","line1":"1 66405U 25257AB  26145.18049883  .00020873  00000+0  62706-3 0  9994","line2":"2 66405  53.1600 221.0827 0001525  80.7674 279.3501 15.34406702 31389","mean_motion":15.34406702,"eccentricity":0.0001525,"inclination_deg":53.16,"raan_deg":221.0827,"arg_perigee_deg":80.7674,"mean_anomaly_deg":279.3501,"bstar":0.00062706,"rev_number":3138,"period_min":93.847348171971,"perigee_km":461.64009542435,"apogee_km":463.72654562211,"semimajor_km":6840.8203205232,"source":"CELESTRAK","updated_at":"2026-05-25T13:38:21.205485Z"}}}